FW0871 Weather Reports


Display with metric or nautical units.
time (UTC)temp
F
wind
direction
speed
MPH
gust
MPH
rain 1hr
in
rain 24hr
in
rain mn
in
humidity
%
barometer
mb
20260508060043 46 305 2.0 6.0 0.00 0.02 0.00 64 1006.6
20260508054602 46 323 5.0 10.0 0.00 0.02 0.00 65 1006.5
20260508053042 46 304 7.0 11.0 0.00 0.10 0.00 66 1006.6
20260508051539 46 290 3.0 8.0 0.00 0.10 0.00 65 1006.9
20260508050008 46 296 5.0 7.0 0.00 0.10 0.00 76 1006.9
20260508044507 46 322 3.0 5.0 0.00 0.10 0.00 67 1007.1
20260508043036 46 311 3.0 6.0 0.00 0.20 0.00 70 1007.1
20260508041536 46 309 2.0 4.0 0.00 0.20 0.00 68 1007.1
20260508040029 47 304 1.0 4.0 0.00 0.20 0.00 64 1007.2
20260508034524 48 311 2.0 4.0 0.00 0.20 0.00 62 1007.1
20260508033026 48 345 2.0 5.0 0.00 0.20 0.00 60 1007.1
20260508031519 49 309 4.0 6.0 0.00 0.20 0.00 60 1007.3
20260508030018 49 320 2.0 6.0 0.00 0.20 0.00 58 1007.5
20260508024519 50 316 3.0 7.0 0.00 0.20 0.00 57 1007.2
20260508023029 50 314 4.0 8.0 0.00 0.20 0.00 56 1007.0
20260508021514 51 303 4.0 7.0 0.00 0.20 0.00 57 1006.9
20260508020013 51 286 1.0 8.0 0.00 0.20 0.00 55 1006.7
20260508014511 52 305 4.0 9.0 0.00 0.20 0.00 55 1006.7
20260508013009 53 309 5.0 9.0 0.00 0.25 0.00 55 1006.5
20260508011509 53 304 1.0 6.0 0.00 0.25 0.00 54 1006.5
20260508010013 54 295 5.0 12.0 0.00 0.25 0.00 50 1006.4
20260508004538 53 287 2.0 5.0 0.00 0.25 0.00 53 1006.1
20260508003036 54 326 0.0 4.0 0.00 0.27 0.00 52 1005.6
20260508001605 55 303 2.0 6.0 0.00 0.27 0.00 51 1005.5
20260508000004 56 311 3.0 11.0 0.00 0.27 0.00 50 1005.2
20260507234501 57 333 3.0 5.0 0.00 0.27 0.00 50 1005.2
20260507233002 58 288 3.0 8.0 0.00 0.40 0.00 49 1005.1
20260507231501 59 294 6.0 10.0 0.00 0.40 0.00 45 1004.8
20260507224605 59 301 6.0 11.0 0.00 0.40 0.00 44 1004.4
20260507223059 60 305 8.0 15.0 0.00 0.59 0.00 46 1004.3
20260507221556 59 309 9.0 15.0 0.00 0.59 0.00 47 1004.2
20260507220055 60 280 9.0 14.0 0.00 0.59 0.00 45 1004.0
20260507214532 60 299 10.0 16.0 0.00 0.59 0.00 45 1004.1
20260507213122 60 309 10.0 15.0 0.00 0.65 0.00 45 1004.0
20260507211517 58 321 6.0 10.0 0.00 0.65 0.00 66 1003.9
20260507210038 57 252 3.0 9.0 0.00 0.65 0.00 68 1003.9
20260507204514 57 154 7.0 11.0 0.00 0.65 0.00 70 1003.7
20260507203019 56 129 4.0 12.0 0.00 0.72 0.00 73 1003.6
20260507201541 55 146 5.0 12.0 0.00 0.72 0.00 76 1003.5
20260507200052 55 165 4.0 11.0 0.00 0.72 0.00 76 1003.6
20260507194508 54 176 8.0 13.0 0.00 0.72 0.00 76 1004.0
20260507193012 54 160 6.0 13.0 0.00 0.72 0.00 78 1004.2
20260507191513 54 208 8.0 15.0 0.00 0.72 0.00 76 1004.3
20260507190003 54 153 8.0 15.0 0.00 0.72 0.00 75 1004.5
20260507184502 55 167 7.0 14.0 0.00 0.72 0.00 70 1004.6
20260507183110 55 173 7.0 13.0 0.00 0.72 0.00 72 1004.8
20260507181556 54 148 7.0 14.0 0.00 0.72 0.00 75 1004.8
20260507180058 54 151 8.0 15.0 0.00 0.72 0.00 76 1004.8
20260507174601 55 244 6.0 13.0 0.00 0.72 0.00 77 1004.8
20260507173155 54 217 9.0 16.0 0.00 0.72 0.00 79 1004.9
20260507171551 54 156 9.0 13.0 0.00 0.72 0.00 80 1004.9
20260507170053 55 151 8.0 13.0 0.00 0.72 0.00 77 1004.8
20260507164556 56 155 7.0 13.0 0.00 0.72 0.00 76 1004.9
20260507163046 57 194 3.0 11.0 0.00 0.72 0.00 75 1005.2
20260507161552 57 176 3.0 9.0 0.00 0.72 0.00 75 1005.3
20260507160059 56 165 6.0 11.0 0.00 0.72 0.00 75 1005.4
20260507154542 57 152 1.0 8.0 0.00 0.72 0.00 73 1005.7
20260507153039 56 165 1.0 6.0 0.00 0.72 0.00 74 1005.8
20260507151533 55 303 1.0 5.0 0.00 0.72 0.00 74 1005.7
20260507150030 55 300 1.0 3.0 0.00 0.72 0.00 76 1005.7
20260507144541 54 310 1.0 3.0 0.00 0.72 0.00 76 1005.9
20260507143024 53 314 2.0 6.0 0.00 0.72 0.00 78 1006.0
20260507141523 53 310 2.0 5.0 0.00 0.72 0.00 80 1006.3
20260507140014 52 258 3.0 6.0 0.00 0.72 0.00 80 1006.4
20260507134513 51 299 0.0 4.0 0.00 0.72 0.00 81 1006.3
20260507133013 51 301 3.0 6.0 0.00 0.72 0.00 82 1006.3
20260507131505 50 291 3.0 8.0 0.00 0.72 0.00 83 1006.6
20260507130008 50 304 4.0 7.0 0.00 0.72 0.00 84 1006.9
20260507124606 49 304 4.0 9.0 0.00 0.72 0.00 84 1006.9
20260507123055 48 288 6.0 9.0 0.00 0.72 0.72 85 1006.7
20260507121557 48 321 6.0 12.0 0.00 0.72 0.72 86 1006.8
20260507120050 48 301 5.0 11.0 0.00 0.72 0.72 88 1006.6
20260507114553 47 323 3.0 5.0 0.00 0.72 0.72 94 1006.6
20260507113050 47 292 0.0 0.0 0.00 0.72 0.72 97 1006.6
20260507111557 47 293 0.0 1.0 0.00 0.72 0.72 98 1007.0
20260507110043 47 293 0.0 0.0 0.00 0.72 0.72 98 1006.7
20260507104541 0 0.0 0.0 0.00 0.72 0.72 1007.1
20260507103037 0 0.0 0.0 0.00 0.72 0.72 1007.2
20260507101532 0 0.0 0.0 0.00 0.72 0.72 1006.6
20260507100025 0 0.0 0.0 0.01 0.72 0.72 1006.1
20260507094524 0 0.0 0.0 0.01 0.72 0.72 1006.2
20260507093017 0 0.0 0.0 0.01 0.72 0.72 1005.7
20260507091513 0 314 2.0 9.0 0.01 0.72 0.72 1006.3
20260507090113 48 314 3.0 10.0 0.00 0.71 0.71 96 1006.2
20260507084601 48 307 3.0 7.0 0.00 0.71 0.71 96 1006.3
20260507083057 48 323 3.0 7.0 0.00 0.71 0.71 97 1005.8
20260507081555 49 305 4.0 9.0 0.00 0.71 0.71 97 1005.9
20260507080054 49 279 5.0 10.0 0.00 0.71 0.71 98 1005.9
20260507074558 49 311 4.0 10.0 0.00 0.71 0.71 99 1005.9
20260507073052 49 300 5.0 7.0 0.00 0.71 0.71 99 1005.6
20260507071552 49 312 4.0 6.0 0.00 0.71 0.71 100 1005.0
20260507070055 49 304 3.0 6.0 0.00 0.71 0.71 100 1004.7
20260507064607 49 298 4.0 6.0 0.01 0.71 0.71 100 1004.8
20260507063056 49 297 5.0 10.0 0.01 0.71 0.71 99 1004.7
20260507061553 50 311 8.0 13.0 0.02 0.71 0.71 100 1004.7